Location: Asheville, NC
(35.6000°N, 82.5500°W)
Time: 06:21:51
(UTC-05:00)

LilacSat-2 - Pass Details

Date: 11 January 2018
Orbit: 515 x 537 km, 97.5° (Epoch: 19 January)

Event Time Altitude Azimuth Distance (km) Brightness Sun altitude
Rises 18:32:42 0° 196° (SSW) 2,669 ? -11.3°
Reaches altitude 10° 18:35:08 10° 211° (SSW) 1,784 ? -11.8°
Maximum altitude 18:38:13 23° 264° (W) 1,176 ? -12.4°
Drops below altitude 10° 18:41:20 10° 318° (NW) 1,793 ? -13.0°
Sets 18:43:48 0° 333° (NNW) 2,686 ? -13.5°
